This is the latest recevied weather packets stored in our database for station/object AA3CS-1. If no packets are shown the sender has not sent any weather packets the latest 10 day(s).
| Time | Temp. | Humidity | Pressure | Rain* | Wind** | Luminosity | Snow |
|---|---|---|---|---|---|---|---|
| 1777754737 | 5.56° C | 56% | 1016.7 hPa | 0 mm | - | 176 W/m² | - |
| 1777754118 | 5.56° C | 56% | 1016.7 hPa | 0 mm | - | 242 W/m² | - |
| 1777753217 | 5.56° C | 59% | 1016.8 hPa | 0 mm | - | 181 W/m² | - |
| 1777752017 | 5.56° C | 62% | 1016.8 hPa | 0 mm | - | 276 W/m² | - |
| 1777750517 | 5° C | 62% | 1017 hPa | 0 mm | - | 125 W/m² | - |
| 1777750237 | 5° C | 60% | 1017 hPa | 0 mm | - | 131 W/m² | - |
| 1777749917 | 5° C | 61% | 1017.1 hPa | 0 mm | - | 146 W/m² | - |
| 1777749617 | 5° C | 62% | 1017.1 hPa | 0 mm | - | 163 W/m² | - |
| 1777747217 | 4.44° C | 65% | 1017.3 hPa | 0 mm | - | 145 W/m² | - |
| 1777746317 | 4.44° C | 68% | 1017.3 hPa | 0 mm | - | 130 W/m² | - |
| 1777743017 | 5° C | 74% | 1017.6 hPa | 0 mm | - | 269 W/m² | - |
| 1777742117 | 5° C | 77% | 1017.6 hPa | 0 mm | - | 312 W/m² | - |
| 1777740337 | 4.44° C | 78% | 1017.7 hPa | 0 mm | - | 460 W/m² | - |
| 1777738517 | 3.89° C | 83% | 1017.7 hPa | 0.25 mm | - | 324 W/m² | - |
| 1777737017 | 2.78° C | 87% | 1017.6 hPa | 0.25 mm | - | 263 W/m² | - |
| 1777735817 | 2.78° C | 86% | 1017.5 hPa | 0 mm | - | 168 W/m² | - |
| 1777735517 | 2.22° C | 85% | 1017.4 hPa | 0 mm | - | 155 W/m² | - |
| 1777735217 | 2.22° C | 86% | 1017.4 hPa | 0 mm | - | 128 W/m² | - |
| 1777734917 | 2.22° C | 86% | 1017.4 hPa | 0 mm | - | 115 W/m² | - |
| 1777733117 | 1.67° C | 88% | 1017.1 hPa | 0 mm | - | 70 W/m² | - |
| 1777730717 | 2.22° C | 84% | 1016.5 hPa | 0 mm | - | 83 W/m² | - |
| 1777730417 | 2.22° C | 84% | 1016.5 hPa | 0 mm | - | 90 W/m² | - |
| 1777727417 | 3.33° C | 85% | 1015.9 hPa | 0 mm | - | 104 W/m² | - |
| 1777724717 | 3.33° C | 87% | 1016 hPa | 0 mm | - | 134 W/m² | - |
| 1777720217 | 2.78° C | 91% | 1015.8 hPa | 0 mm | - | 32 W/m² | - |
* Rain latest hour (hover to see other rain measurements)
** Current wind speed in m/s (hover to see current wind gust speed)